Regional Weather Roundup
Issued by NWS Charleston, WV

Home | Current Version | Previous Version | Text Only | Print | Product List | Glossary Off
Versions: 1 2 3 4 5 6 7 8 9 10 11 12 13 14 15 16 17 18 19 20 21 22 23 24 25 26 27 28 29 30 31 32 33 34 35 36 37 38 39 40 41 42 43 44 45 46 47 48 49 50

000
ASUS41 KRLX 280210
RWRRLX
West Virginia Regional Weather Roundup
National Weather Service Charleston WV
900 PM EST THU NOV 27 2014

Note: "fair" indicates few or no clouds below 12,000 feet with no
significant weather and/or obstructions to visibility.

WVZ003-280300-
Northern Panhandle of West Virginia

CITY           SKY/WX    TMP DP  RH WIND       PRES   REMARKS
WHEELING       CLOUDY    28  24  85 W9        30.22S
$$

WVZ009-280300-
Northwest West Virginia

CITY           SKY/WX    TMP DP  RH WIND       PRES   REMARKS
PARKERSBURG    CLOUDY    31  23  72 W8        30.32R
$$

WVZ006-280300-
Western West Virginia

CITY           SKY/WX    TMP DP  RH WIND       PRES   REMARKS
HUNTINGTON     CLOUDY    30  25  81 W8        30.35R
$$

WVZ015-280300-
West Central West Virginia

CITY           SKY/WX    TMP DP  RH WIND       PRES   REMARKS
CHARLESTON     LGT SNOW  31  26  82 W5        30.32R
$$

WVZ022-031-280300-
North Central West Virginia

CITY           SKY/WX    TMP DP  RH WIND       PRES   REMARKS
CLARKSBURG     LGT SNOW  29  26  89 W7        30.25R FOG
MORGANTOWN     FLURRIES  29  21  72 W10       30.23R
$$

WVZ025-035-042-045-280300-
Southern West Virginia

CITY           SKY/WX    TMP DP  RH WIND       PRES   REMARKS
BECKLEY        LGT SNOW  25  20  81 NW10      30.23R
LOGAN          LGT SNOW  28  27  93 W6        30.30R
BLUEFIELD      FLURRIES  26  18  71 NW6G21    30.22R
LEWISBURG      CLOUDY    29  21  71 W8        30.21R
$$

WVZ047-280300-
Northern Mountains of West Virginia

CITY           SKY/WX    TMP DP  RH WIND       PRES   REMARKS
ELKINS         LGT SNOW  26  23  88 NW10G23   30.20R VSB 3/4
$$

WVZ052-280300-
Eastern Panhandle of West Virginia

CITY           SKY/WX    TMP DP  RH WIND       PRES   REMARKS
MARTINSBURG    CLOUDY    38  25  59 W16G22    30.16R
PETERSBURG     NOT AVBL
$$



USA.gov is the U.S. government's official web portal to all federal, state and local government web resources and services.